| time (UTC) | temp C | wind direction | speed KPH | gust KPH | rain 1hr cm | rain 24hr cm | rain mn cm | humidity % | barometer mb |
| 20260507031602 | 12 | 102 | 4.8 | 4.8 | 0.00 | 0.00 | 0.00 | 55 | 1058.6 |
| 20260507024602 | 13 | 80 | 4.8 | 4.8 | 0.00 | 0.00 | 0.00 | 54 | 1057.9 |
| 20260507023102 | 13 | 147 | 0.0 | 0.0 | 0.00 | 0.00 | 0.00 | 52 | 1057.9 |
| 20260507021602 | 13 | 118 | 0.0 | 4.8 | 0.00 | 0.00 | 0.00 | 51 | 1057.6 |
| 20260507014603 | 15 | 88 | 0.0 | 11.3 | 0.00 | 0.00 | 0.00 | 48 | 1057.2 |
| 20260507011603 | 16 | 131 | 3.2 | 12.9 | 0.00 | 0.00 | 0.00 | 45 | 1056.9 |
| 20260507004602 | 16 | 51 | 4.8 | 8.0 | 0.00 | 0.00 | 0.00 | 44 | 1056.9 |
| 20260507001602 | 17 | 71 | 3.2 | 12.9 | 0.00 | 0.00 | 0.00 | 44 | 1056.6 |
| 20260506234602 | 17 | 124 | 6.4 | 8.0 | 0.00 | 0.00 | 0.00 | 43 | 1056.2 |
| 20260506233102 | 18 | 74 | 3.2 | 4.8 | 0.00 | 0.00 | 0.00 | 42 | 1056.2 |
| 20260506231602 | 18 | 84 | 8.0 | 14.5 | 0.00 | 0.00 | 0.00 | 41 | 1055.9 |
| 20260506230103 | 18 | 85 | 6.4 | 16.1 | 0.00 | 0.00 | 0.00 | 40 | 1055.9 |
| 20260506224602 | 18 | 323 | 3.2 | 12.9 | 0.00 | 0.00 | 0.00 | 41 | 1055.5 |
| 20260506222602 | 18 | 33 | 6.4 | 14.5 | 0.00 | 0.00 | 0.00 | 41 | 1055.5 |
| 20260506221102 | 18 | 73 | 4.8 | 12.9 | 0.00 | 0.00 | 0.00 | 42 | 1055.5 |
| 20260506215602 | 18 | 91 | 8.0 | 16.1 | 0.00 | 0.00 | 0.00 | 41 | 1055.5 |
| 20260506214102 | 18 | 103 | 9.7 | 19.3 | 0.00 | 0.00 | 0.00 | 41 | 1055.5 |
| 20260506212602 | 18 | 74 | 4.8 | 9.7 | 0.00 | 0.00 | 0.00 | 42 | 1055.9 |
| 20260506211103 | 18 | 57 | 3.2 | 14.5 | 0.00 | 0.00 | 0.00 | 44 | 1055.9 |
| 20260506201602 | 18 | 55 | 8.0 | 16.1 | 0.00 | 0.00 | 0.00 | 45 | 1056.2 |
| 20260506194603 | 17 | 60 | 6.4 | 14.5 | 0.00 | 0.00 | 0.00 | 45 | 1056.6 |
| 20260506193102 | 16 | 48 | 6.4 | 20.9 | 0.00 | 0.00 | 0.00 | 49 | 1056.9 |
| 20260506191602 | 16 | 32 | 8.0 | 16.1 | 0.00 | 0.00 | 0.00 | 51 | 1056.9 |
| 20260506184602 | 16 | 66 | 12.9 | 14.5 | 0.00 | 0.00 | 0.00 | 49 | 1056.9 |
| 20260506183102 | 15 | 99 | 9.7 | 12.9 | 0.00 | 0.00 | 0.00 | 50 | 1057.2 |
| 20260506182102 | 15 | 96 | 14.5 | 19.3 | 0.00 | 0.00 | 0.00 | 50 | 1057.2 |
| 20260506180602 | 16 | 72 | 9.7 | 16.1 | 0.00 | 0.00 | 0.00 | 49 | 1057.6 |
| 20260506175102 | 16 | 65 | 8.0 | 19.3 | 0.00 | 0.00 | 0.00 | 50 | 1057.6 |
| 20260506173603 | 16 | 90 | 9.7 | 17.7 | 0.00 | 0.00 | 0.00 | 49 | 1057.6 |
| 20260506172102 | 17 | 82 | 11.3 | 16.1 | 0.00 | 0.00 | 0.00 | 48 | 1057.6 |
| 20260506170602 | 16 | 80 | 11.3 | 25.7 | 0.00 | 0.00 | 0.00 | 49 | 1057.6 |
| 20260506165102 | 15 | 108 | 8.0 | 24.1 | 0.00 | 0.00 | 0.00 | 51 | 1057.6 |
| 20260506163602 | 15 | 78 | 17.7 | 22.5 | 0.00 | 0.00 | 0.00 | 50 | 1057.9 |
| 20260506162102 | 15 | 94 | 11.3 | 19.3 | 0.00 | 0.00 | 0.00 | 52 | 1057.9 |
| 20260506160602 | 14 | 39 | 14.5 | 24.1 | 0.00 | 0.00 | 0.00 | 53 | 1057.6 |
| 20260506155102 | 14 | 52 | 12.9 | 17.7 | 0.00 | 0.00 | 0.00 | 55 | 1057.6 |
| 20260506153602 | 13 | 85 | 12.9 | 19.3 | 0.00 | 0.00 | 0.00 | 57 | 1057.6 |
| 20260506150602 | 12 | 25 | 6.4 | 20.9 | 0.00 | 0.00 | 0.00 | 62 | 1057.6 |
| 20260506145103 | 11 | 99 | 22.5 | 22.5 | 0.00 | 0.00 | 0.00 | 65 | 1057.2 |
| 20260506143603 | 10 | 66 | 17.7 | 22.5 | 0.00 | 0.00 | 0.00 | 69 | 1057.2 |
| 20260506142102 | 10 | 99 | 11.3 | 12.9 | 0.00 | 0.00 | 0.00 | 71 | 1056.9 |
| 20260506140602 | 10 | 90 | 8.0 | 12.9 | 0.00 | 0.00 | 0.00 | 71 | 1057.2 |
| 20260506135102 | 10 | 70 | 6.4 | 16.1 | 0.00 | 0.00 | 0.00 | 73 | 1057.2 |
| 20260506132102 | 9 | 81 | 9.7 | 14.5 | 0.00 | 0.00 | 0.00 | 75 | 1057.2 |
| 20260506130603 | 9 | 101 | 6.4 | 12.9 | 0.00 | 0.00 | 0.00 | 76 | 1056.9 |
| 20260506125102 | 9 | 177 | 1.6 | 11.3 | 0.00 | 0.00 | 0.00 | 76 | 1056.9 |
| 20260506122602 | 8 | 110 | 11.3 | 12.9 | 0.00 | 0.00 | 0.00 | 78 | 1056.6 |
| 20260506121102 | 8 | 55 | 3.2 | 12.9 | 0.00 | 0.00 | 0.00 | 78 | 1055.9 |
| 20260506115602 | 8 | 75 | 6.4 | 9.7 | 0.00 | 0.00 | 0.00 | 79 | 1055.9 |
| 20260506114102 | 8 | 53 | 8.0 | 8.0 | 0.00 | 0.00 | 0.00 | 79 | 1055.9 |
| 20260506112602 | 8 | 3 | 3.2 | 9.7 | 0.00 | 0.00 | 0.00 | 78 | 1055.9 |
| 20260506111103 | 8 | 84 | 4.8 | 12.9 | 0.00 | 0.00 | 0.00 | 77 | 1055.5 |
| 20260506105602 | 8 | 50 | 6.4 | 8.0 | 0.00 | 0.00 | 0.00 | 76 | 1055.5 |
| 20260506104102 | 8 | 52 | 3.2 | 8.0 | 0.00 | 0.00 | 0.00 | 75 | 1056.6 |
| 20260506103102 | 9 | 66 | 3.2 | 12.9 | 0.00 | 0.00 | 0.00 | 75 | 1056.2 |
| 20260506101602 | 9 | 82 | 4.8 | 11.3 | 0.00 | 0.00 | 0.00 | 75 | 1055.9 |
| 20260506094602 | 9 | 216 | 3.2 | 8.0 | 0.00 | 0.00 | 0.00 | 74 | 1055.5 |
| 20260506093102 | 9 | 303 | 0.0 | 4.8 | 0.00 | 0.00 | 0.00 | 73 | 1054.9 |
| 20260506091602 | 9 | 140 | 0.0 | 8.0 | 0.00 | 0.00 | 0.00 | 72 | 1054.9 |
| 20260506081602 | 9 | 22 | 4.8 | 8.0 | 0.00 | 0.00 | 0.00 | 70 | 1053.8 |
| 20260506080602 | 9 | 306 | 4.8 | 9.7 | 0.00 | 0.00 | 0.00 | 70 | 1053.8 |
| 20260506072602 | 9 | 48 | 4.8 | 14.5 | 0.00 | 0.00 | 0.00 | 69 | 1053.2 |
| 20260506061602 | 9 | 302 | 6.4 | 14.5 | 0.00 | 0.00 | 0.00 | 68 | 1053.5 |
| 20260506042102 | 9 | 36 | 11.3 | 17.7 | 0.00 | 0.00 | 0.00 | 69 | 1053.2 |
| 20260506041102 | 9 | 42 | 3.2 | 12.9 | 0.00 | 0.00 | 0.00 | 70 | 1053.2 |
| 20260506035602 | 9 | 86 | 6.4 | 16.1 | 0.00 | 0.00 | 0.00 | 72 | 1053.2 |
| 20260506034102 | 9 | 76 | 6.4 | 14.5 | 0.00 | 0.00 | 0.00 | 74 | 1052.8 |